Location: Oshawa
(43.9000°N, 78.8670°W)
Time: 22:32:54
(UTC-04:00)

Amateur Radio Satellites - All Passes

Search period start: 30 August 2015 22:02
Search period end: 31 August 2015 22:02
Location: Oshawa, 43.9000°N, 78.8670°W

Satellite Date Start Highest point End Downlink Frequencies (MHz)
Time Altitude Azimuth
Cosmos 2491 30 Aug 22:03:04 22:11:15 45° 272° (W) 22:19:22 435.465 / 435.565
PRISM 30 Aug 22:07:04 22:09:04 13° 297° (WNW) 22:10:54 437.425
DX 1 30 Aug 22:08:52 22:11:56 20° 65° (ENE) 22:15:08 434.975-435.025
Cosmos 2504 30 Aug 22:10:40 22:13:01 12° 73° (ENE) 22:16:04 435.465 / 435.565
ESTCUBE 1 30 Aug 22:10:43 22:11:10 10° 60° (ENE) 22:11:52 437.505/2401.250
YUBILEINY 30 Aug 22:11:22 22:20:10 89° 278° (W) 22:29:04 435.215
Oscar 11 30 Aug 22:17:34 22:21:51 56° 260° (W) 22:26:09 145.826/435.025
HUMSAT D 30 Aug 22:17:38 22:21:37 37° 71° (ENE) 22:25:39 437.325/437.525
SEEDS 30 Aug 22:20:50 22:23:39 17° 270° (W) 22:26:20 437.485
UKube-1 30 Aug 22:23:02 22:26:30 24° 67° (ENE) 22:30:03 .
AISAT 30 Aug 22:25:45 22:28:52 20° 65° (ENE) 22:32:07 437.250
CUBEBUG 1 30 Aug 22:31:32 22:33:29 13° 62° (ENE) 22:35:40 437.445
UNISAT 6 30 Aug 22:34:24 22:35:57 12° 86° (E) 22:37:44 437.425
50 SAT 30 Aug 22:40:46 22:44:07 28° 69° (ENE) 22:47:33 437.505
HO-68 30 Aug 22:45:21 22:49:55 17° 273° (W) 22:54:07 435.675
COMPASS 1 30 Aug 22:46:25 22:47:54 11° 273° (W) 22:49:11 437.405
CUBEBUG 2 30 Aug 22:52:59 22:56:51 25° 268° (W) 23:00:43 437.445
VELOX 1 30 Aug 22:53:21 22:57:19 35° 69° (ENE) 23:01:21 145.980
CINEMA 3 30 Aug 22:56:42 22:58:40 12° 275° (W) 23:00:23 145.822/145.860
ZACube-1 30 Aug 22:58:04 23:02:13 34° 264° (W) 23:06:25 437.345
TIGRISAT 30 Aug 23:01:55 23:05:28 22° 92° (E) 23:09:03 435.000
UWE-3 30 Aug 23:02:37 23:06:26 25° 268° (W) 23:10:15 435.000/436.395/437.385
FUNcube-1 30 Aug 23:04:12 23:08:15 31° 266° (W) 23:12:18 145.935
ANTELSAT 30 Aug 23:18:04 23:22:14 33° 95° (E) 23:26:19 437.575/2403.000
DELFI C3 30 Aug 23:29:33 23:31:49 14° 271° (W) 23:33:55 145.870
BEESAT 3 30 Aug 23:30:08 23:33:20 22° 42° (NE) 23:36:33 437.485
RS-15 30 Aug 23:34:03 23:44:17 35° 26° (NNE) 23:55:04 29.354- 29.394
BEESAT 2 30 Aug 23:40:23 23:43:34 22° 42° (NE) 23:46:46 435.950
TISAT 1 30 Aug 23:40:52 23:42:42 13° 62° (ENE) 23:44:42 437.305
ESTCUBE 1 30 Aug 23:42:53 23:47:22 85° 76° (ENE) 23:51:53 437.505/2401.250
DX 1 30 Aug 23:43:48 23:47:55 42° 262° (W) 23:52:04 434.975-435.025
HUMSAT D 30 Aug 23:54:09 23:57:29 21° 268° (W) 00:00:45 437.325/437.525
Cosmos 2504 30 Aug 23:55:40 00:03:37 64° 92° (E) 00:12:04 435.465 / 435.565
POLYITAN 1 30 Aug 23:55:58 23:59:48 30° 96° (E) 00:03:37 437.675
UKube-1 30 Aug 23:58:35 00:02:30 33° 264° (W) 00:06:24 .
POPSAT HIP 1 30 Aug 23:59:01 00:02:53 32° 96° (E) 00:06:45 437.405
DUCHIFAT 1 31 Aug 00:00:35 00:04:25 32° 96° (E) 00:08:17 145.980
AISAT 31 Aug 00:00:56 00:05:09 44° 261° (W) 00:09:24 437.250
CUBEBUG 1 31 Aug 00:05:04 00:09:21 68° 258° (WSW) 00:13:41 437.445
SPROUT 31 Aug 00:05:28 00:09:25 38° 71° (ENE) 00:13:27 437.525
AUBIESAT-1 31 Aug 00:08:45 00:12:45 64° 106° (ESE) 00:16:24 437.475
UNISAT 6 31 Aug 00:08:46 00:13:23 73° 285° (WNW) 00:17:52 437.425
AIST 2 31 Aug 00:09:13 00:11:03 13° 33° (NNE) 00:13:00 435.215
YUBILEINY 31 Aug 00:12:03 00:18:31 21° 302° (WNW) 00:24:38 435.215
M-CUBED/EXP-1 PRIME 31 Aug 00:12:52 00:16:59 86° 108° (ESE) 00:20:43 437.505
BUGSAT 1 31 Aug 00:13:33 00:17:13 28° 95° (E) 00:20:55 437.445
50 SAT 31 Aug 00:15:21 00:18:38 24° 266° (W) 00:21:52 437.505
QB50P2 31 Aug 00:15:27 00:19:39 50° 99° (E) 00:23:50 145.880/145.840
NANOSAT C BR1 31 Aug 00:17:25 00:21:37 50° 99° (E) 00:25:47 145.865
VELOX 1 31 Aug 00:30:23 00:33:58 23° 267° (W) 00:37:29 145.980
QB50P1 31 Aug 00:30:31 00:34:50 72° 102° (ESE) 00:39:07 145.935-145.965
TIGRISAT 31 Aug 00:38:05 00:42:23 39° 290° (WNW) 00:46:32 435.000
ANTELSAT 31 Aug 00:55:01 00:58:54 26° 293° (WNW) 01:02:36 437.575/2403.000
ITUPSAT 1 31 Aug 00:58:51 01:01:51 17° 62° (ENE) 01:05:01 437.325
BEESAT 3 31 Aug 01:07:36 01:11:28 44° 241° (WSW) 01:15:14 437.485
CUSAT 1 31 Aug 01:10:50 01:14:40 73° 284° (WNW) 01:19:51 437.405
TISAT 1 31 Aug 01:13:47 01:17:57 67° 258° (WSW) 01:22:11 437.305
BEESAT 2 31 Aug 01:17:55 01:21:50 46° 241° (WSW) 01:25:40 435.950
DANDE 31 Aug 01:31:04 01:34:28 72° 281° (WNW) 01:39:04 436.750
BEESAT 31 Aug 01:31:19 01:35:35 34° 68° (ENE) 01:39:54 436.000
POLYITAN 1 31 Aug 01:31:57 01:35:36 26° 292° (WNW) 01:39:09 437.675
Oscar 19 31 Aug 01:33:53 01:36:53 16° 88° (E) 01:40:05 437.125/150
POPSAT HIP 1 31 Aug 01:35:04 01:38:38 25° 293° (WNW) 01:42:06 437.405
DUCHIFAT 1 31 Aug 01:36:34 01:40:06 25° 293° (WNW) 01:43:33 145.980
SPROUT 31 Aug 01:42:23 01:45:40 21° 268° (W) 01:48:52 437.525
AUBIESAT-1 31 Aug 01:45:01 01:46:55 13° 305° (NW) 01:48:36 437.475
AIST 2 31 Aug 01:46:14 01:50:26 72° 54° (NE) 01:54:33 435.215
RS-15 31 Aug 01:46:57 01:58:49 82° 54° (NE) 02:11:07 29.354- 29.394
BUGSAT 1 31 Aug 01:48:58 01:52:38 28° 291° (WNW) 01:56:14 437.445
Cosmos 2504 31 Aug 01:49:23 01:56:32 31° 295° (WNW) 02:03:48 435.465 / 435.565
M-CUBED/EXP-1 PRIME 31 Aug 01:50:15 01:51:04 10° 307° (NW) 01:51:40 437.505
SO-50 31 Aug 01:50:43 01:55:20 50° 119° (ESE) 02:00:07 436.795
QB50P2 31 Aug 01:52:21 01:55:11 17° 296° (WNW) 01:57:53 145.880/145.840
NANOSAT C BR1 31 Aug 01:54:15 01:57:05 17° 296° (WNW) 01:59:46 145.865
SWISSCUBE 31 Aug 01:56:35 02:01:17 65° 74° (ENE) 02:06:01 437.505
QB50P1 31 Aug 02:08:14 02:10:10 13° 298° (WNW) 02:11:55 145.935-145.965
PCSat 31 Aug 02:08:33 02:13:18 33° 111° (ESE) 02:18:09 145.827
ITAMSAT 1 31 Aug 02:30:52 02:33:09 13° 87° (E) 02:35:42 435.822/435.867
ITUPSAT 1 31 Aug 02:34:35 02:39:19 60° 259° (W) 02:44:04 437.325
STARS 31 Aug 02:44:48 02:47:53 20° 65° (ENE) 02:51:08 437.465
GONETS M04 31 Aug 02:59:10 03:07:13 47° 89° (E) 03:15:26
KKS-1 31 Aug 02:59:30 03:03:42 43° 71° (ENE) 03:07:58 437.445
JAS-2 31 Aug 03:02:55 03:07:47 20° 85° (E) 03:12:32 435.910
BEESAT 31 Aug 03:09:22 03:13:29 28° 266° (W) 03:17:32 436.000
Oscar 19 31 Aug 03:11:38 03:16:49 69° 287° (WNW) 03:21:58 437.125/150
AIST 2 31 Aug 03:26:46 03:28:27 12° 250° (WSW) 03:29:58 435.215
SO-50 31 Aug 03:31:57 03:36:09 28° 319° (NW) 03:40:23 436.795
SWISSCUBE 31 Aug 03:36:58 03:39:40 15° 271° (W) 03:42:11 437.505
Gurwin Techsat 1B 31 Aug 03:44:15 03:49:36 78° 102° (ESE) 03:54:56 435.225
PCSat 31 Aug 03:51:33 03:56:39 40° 310° (NW) 04:01:45 145.827
RS-15 31 Aug 04:00:27 04:10:21 31° 255° (WSW) 04:20:03 29.354- 29.394
HORYU 2 31 Aug 04:02:42 04:04:06 11° 87° (E) 04:05:44 437.375
ITAMSAT 1 31 Aug 04:08:11 04:13:22 80° 287° (WNW) 04:18:34 435.822/435.867
AO-7 31 Aug 04:19:09 04:26:08 30° 94° (E) 04:33:15 29.400- 29.500
STARS 31 Aug 04:19:48 04:24:02 45° 261° (W) 04:28:19 437.465
VERMONT LUNAR 31 Aug 04:21:42 04:23:27 15° 155° (SSE) 04:25:12 437.305
Cosmos 2499 31 Aug 04:30:38 04:38:33 48° 89° (E) 04:46:56 435.465 / 435.565
KKS-1 31 Aug 04:37:18 04:40:34 19° 268° (W) 04:43:44 437.445
MOZHAYETS 4 31 Aug 04:40:50 04:45:26 71° 75° (ENE) 04:50:03
JAS-2 31 Aug 04:46:38 04:53:49 74° 287° (WNW) 05:00:07 435.910
Oscar 19 31 Aug 04:54:24 04:55:19 10° 304° (NW) 04:55:56 437.125/150
GONETS M04 31 Aug 04:56:06 05:04:14 41° 290° (WNW) 05:12:20
CUBESAT XI-V 31 Aug 04:58:45 04:59:54 11° 60° (ENE) 05:01:17 437.345
O/OREOS (USA 219) 31 Aug 05:17:45 05:22:20 58° 63° (ENE) 05:26:51 437.305
Gurwin Techsat 1B 31 Aug 05:25:44 05:29:01 16° 300° (WNW) 05:32:06 435.225
HORYU 2 31 Aug 05:36:52 05:41:21 72° 285° (WNW) 05:45:45 437.375
PCSat 31 Aug 05:40:40 05:41:42 10° 333° (NNW) 05:42:34 145.827
ITAMSAT 1 31 Aug 05:50:06 05:52:08 12° 303° (WNW) 05:53:55 435.822/435.867
VERMONT LUNAR 31 Aug 05:56:38 05:59:25 36° 171° (S) 06:02:12 437.305
STRAND 1 31 Aug 06:01:55 06:04:52 16° 61° (ENE) 06:08:01 437.568
AO-7 31 Aug 06:11:20 06:19:32 65° 294° (WNW) 06:27:40 29.400- 29.500
MOZHAYETS 4 31 Aug 06:21:09 06:23:14 12° 273° (W) 06:25:04
PHONESAT 2.4 31 Aug 06:23:27 06:25:26 15° 153° (SSE) 06:27:29 2401.200-2431.200
Cosmos 2499 31 Aug 06:23:53 06:31:53 42° 290° (WNW) 06:40:09 435.465 / 435.565
CUTE-I 31 Aug 06:26:28 06:29:37 16° 89° (E) 06:33:01 437.470
YUBILEINY 31 Aug 06:28:07 06:28:46 10° 46° (NE) 06:30:05 435.215
CUBESAT XI-V 31 Aug 06:32:05 06:36:42 89° 74° (ENE) 06:41:19 437.345
JAS-2 31 Aug 06:33:30 06:37:37 16° 308° (NW) 06:41:13 435.910
O/OREOS (USA 219) 31 Aug 06:58:34 07:01:19 15° 260° (W) 07:03:53 437.305
Cubesat XI-IV 31 Aug 07:19:47 07:24:57 49° 99° (E) 07:30:07 437.490
PRISM 31 Aug 07:21:05 07:25:05 54° 73° (ENE) 07:29:05 437.425
BRITE-PL 31 Aug 07:29:00 07:31:41 14° 86° (E) 07:34:43 437.365/2234.400
VERMONT LUNAR 31 Aug 07:32:46 07:35:35 38° 187° (S) 07:38:23 437.305
AIST 1 31 Aug 07:34:41 07:35:04 10° 84° (E) 07:35:42
STRAND 1 31 Aug 07:38:28 07:43:34 74° 258° (WSW) 07:48:41 437.568
PHONESAT 2.4 31 Aug 07:59:38 08:02:49 38° 169° (S) 08:06:01 2401.200-2431.200
GOMX 1 31 Aug 08:01:46 08:05:08 17° 87° (E) 08:08:44 467.674
CUTE-I 31 Aug 08:05:00 08:10:18 68° 287° (WNW) 08:15:35 437.470
AO-7 31 Aug 08:05:59 08:10:55 17° 314° (NW) 08:15:30 29.400- 29.500
DOVE 4 31 Aug 08:19:47 08:22:36 15° 86° (E) 08:25:40 437.250
YUBILEINY 31 Aug 08:20:01 08:28:32 50° 73° (ENE) 08:37:02 435.215
HO-68 31 Aug 08:22:08 08:25:56 15° 86° (E) 08:30:10 435.675
SO-50 31 Aug 08:41:27 08:44:18 15° 31° (NNE) 08:47:14 436.795
PRISM 31 Aug 08:58:50 09:00:55 13° 270° (W) 09:02:48 437.425
Cubesat XI-IV 31 Aug 09:00:31 09:04:47 24° 296° (WNW) 09:08:56 437.490
AAUSAT CUBESAT 2 31 Aug 09:03:11 09:03:48 10° 87° (E) 09:04:41 437.432
BRITE-PL 31 Aug 09:05:23 09:10:53 86° 284° (WNW) 09:16:35 437.365/2234.400
AIST 1 31 Aug 09:07:55 09:12:09 70° 280° (W) 09:16:25
Cosmos 2491 31 Aug 09:09:05 09:17:09 46° 89° (E) 09:25:21 435.465 / 435.565
VERMONT LUNAR 31 Aug 09:09:34 09:11:36 17° 203° (SSW) 09:13:37 437.305
CINEMA 3 31 Aug 09:10:34 09:14:02 19° 89° (E) 09:17:37 145.822/145.860
PCSat 31 Aug 09:14:19 09:14:26 10° 26° (NNE) 09:14:44 145.827
AUBIESAT-1 31 Aug 09:24:10 09:26:43 15° 57° (ENE) 09:29:25 437.475
CUTE 1.7 + AOD 2 31 Aug 09:25:18 09:29:13 36° 96° (E) 09:33:08 437.475
M-CUBED/EXP-1 PRIME 31 Aug 09:27:57 09:31:13 19° 59° (ENE) 09:34:33 437.505
UNISAT 6 31 Aug 09:34:25 09:36:54 15° 62° (ENE) 09:39:34 437.425
PHONESAT 2.4 31 Aug 09:37:10 09:40:26 45° 185° (S) 09:43:42 2401.200-2431.200
GOMX 1 31 Aug 09:38:22 09:43:47 71° 286° (WNW) 09:49:16 467.674
CANX-2 31 Aug 09:39:02 09:43:13 58° 100° (E) 09:47:22 2200.000
Cosmos 2504 31 Aug 09:41:25 09:47:52 24° 61° (ENE) 09:54:20 435.465 / 435.565
CUTE-I 31 Aug 09:48:19 09:49:31 11° 304° (NW) 09:50:25 437.470
DOVE 4 31 Aug 09:55:40 10:01:00 77° 285° (WNW) 10:06:17 437.250
ISS 31 Aug 09:58:50 10:02:00 56° 144° (SE) 10:05:13 145.825
TIGRISAT 31 Aug 10:01:47 10:05:33 25° 66° (ENE) 10:09:26 435.000
CUSAT 1 31 Aug 10:01:49 10:07:18 22° 62° (ENE) 10:13:27 437.405
SEEDS 31 Aug 10:01:49 10:06:02 75° 103° (ESE) 10:10:11 437.485
Oscar 11 31 Aug 10:03:59 10:07:25 23° 93° (E) 10:10:54 145.826/435.025
HO-68 31 Aug 10:07:37 10:14:52 84° 106° (ESE) 10:22:05 435.675
YUBILEINY 31 Aug 10:17:13 10:25:14 39° 273° (W) 10:33:02 435.215
ANTELSAT 31 Aug 10:17:59 10:22:15 36° 70° (ENE) 10:26:36 437.575/2403.000
SO-50 31 Aug 10:20:53 10:25:50 66° 52° (NE) 10:30:40 436.795
DANDE 31 Aug 10:24:18 10:29:40 22° 63° (ENE) 10:35:54 436.750
COMPASS 1 31 Aug 10:24:58 10:29:08 77° 284° (WNW) 10:33:15 437.405
AAUSAT CUBESAT 2 31 Aug 10:35:49 10:39:57 69° 285° (WNW) 10:44:03 437.432
CUBEBUG 2 31 Aug 10:41:44 10:46:27 67° 101° (ESE) 10:51:00 437.445
ZACube-1 31 Aug 10:45:02 10:49:20 42° 97° (E) 10:53:32 437.345
BRITE-PL 31 Aug 10:45:48 10:48:44 14° 299° (WNW) 10:51:29 437.365/2234.400
CINEMA 3 31 Aug 10:46:41 10:51:36 54° 288° (WNW) 10:56:23 145.822/145.860
UWE-3 31 Aug 10:50:12 10:54:49 64° 101° (E) 10:59:16 435.000/436.395/437.385
POLYITAN 1 31 Aug 10:50:18 10:53:56 28° 68° (ENE) 10:57:39 437.675
FUNcube-1 31 Aug 10:50:42 10:55:04 47° 98° (E) 10:59:19 145.935
POPSAT HIP 1 31 Aug 10:53:08 10:56:48 29° 69° (ENE) 11:00:32 437.405
DUCHIFAT 1 31 Aug 10:54:14 10:57:52 29° 68° (ENE) 11:01:35 145.980
PCSat 31 Aug 10:54:29 10:59:32 38° 49° (NE) 11:04:36 145.827
AUBIESAT-1 31 Aug 10:56:08 11:00:53 79° 251° (WSW) 11:05:35 437.475
M-CUBED/EXP-1 PRIME 31 Aug 11:00:48 11:05:34 62° 254° (WSW) 11:10:17 437.505
CUTE 1.7 + AOD 2 31 Aug 11:01:41 11:04:57 21° 293° (WNW) 11:08:05 437.475
DELFI C3 31 Aug 11:04:45 11:08:45 70° 101° (ESE) 11:12:42 145.870
BUGSAT 1 31 Aug 11:05:14 11:08:27 23° 67° (ENE) 11:11:47 437.445
Cosmos 2491 31 Aug 11:06:00 11:14:10 42° 290° (WNW) 11:22:16 435.465 / 435.565
UNISAT 6 31 Aug 11:08:28 11:13:08 72° 259° (W) 11:17:53 437.425
QB50P2 31 Aug 11:09:29 11:13:32 45° 72° (ENE) 11:17:39 145.880/145.840
NANOSAT C BR1 31 Aug 11:11:03 11:15:04 44° 72° (ENE) 11:19:09 145.865
PHONESAT 2.4 31 Aug 11:15:12 11:17:56 22° 202° (SSW) 11:20:39 2401.200-2431.200
CANX-2 31 Aug 11:16:21 11:18:42 14° 296° (WNW) 11:20:54 2200.000
GOMX 1 31 Aug 11:19:10 11:21:05 12° 302° (WNW) 11:22:44 467.674
QB50P1 31 Aug 11:24:15 11:28:26 63° 74° (ENE) 11:32:41 145.935-145.965
DX 1 31 Aug 11:30:44 11:34:30 28° 95° (E) 11:38:20 434.975-435.025
Cosmos 2504 31 Aug 11:32:41 11:41:17 81° 264° (W) 11:49:19 435.465 / 435.565
ESTCUBE 1 31 Aug 11:35:19 11:38:03 16° 90° (E) 11:40:57 437.505/2401.250
HUMSAT D 31 Aug 11:35:30 11:39:44 58° 100° (E) 11:43:51 437.325/437.525
ISS 31 Aug 11:35:38 11:38:34 30° 342° (NNW) 11:41:29 145.825
DOVE 4 31 Aug 11:35:49 11:37:56 12° 301° (WNW) 11:39:48 437.250
TIGRISAT 31 Aug 11:37:44 11:42:06 38° 263° (W) 11:46:31 435.000
Oscar 11 31 Aug 11:39:46 11:43:41 33° 290° (WNW) 11:47:32 145.826/435.025
SEEDS 31 Aug 11:39:48 11:41:16 11° 298° (WNW) 11:42:31 437.485
CUSAT 1 31 Aug 11:43:06 11:50:48 88° 80° (E) 11:59:07 437.405
UKube-1 31 Aug 11:44:13 11:48:12 35° 97° (E) 11:52:12 .
50 SAT 31 Aug 11:48:23 11:51:52 32° 96° (E) 11:55:21 437.505
AISAT 31 Aug 11:50:05 11:54:03 31° 96° (E) 11:58:03 437.250
CUBEBUG 1 31 Aug 11:53:07 11:56:20 20° 92° (E) 11:59:41 437.445
ANTELSAT 31 Aug 11:55:11 11:59:07 25° 267° (W) 12:03:00 437.575/2403.000
HO-68 31 Aug 11:56:33 12:01:52 22° 305° (NW) 12:06:57 435.675
SO-50 31 Aug 12:02:37 12:05:55 18° 249° (WSW) 12:09:00 436.795
DANDE 31 Aug 12:06:09 12:13:36 90° 261° (W) 12:22:09 436.750
VELOX 1 31 Aug 12:18:12 12:22:37 58° 101° (E) 12:27:01 145.980
CUBEBUG 2 31 Aug 12:19:49 12:22:36 15° 298° (WNW) 12:25:10 437.445
ZACube-1 31 Aug 12:21:59 12:25:25 21° 295° (WNW) 12:28:40 437.345
POLYITAN 1 31 Aug 12:26:06 12:29:48 28° 266° (W) 12:33:29 437.675
FUNcube-1 31 Aug 12:27:49 12:31:03 19° 295° (WNW) 12:34:06 145.935
UWE-3 31 Aug 12:28:04 12:30:49 15° 297° (WNW) 12:33:23 435.000/436.395/437.385
POPSAT HIP 1 31 Aug 12:29:01 12:32:40 26° 266° (W) 12:36:16 437.405
DUCHIFAT 1 31 Aug 12:30:02 12:33:39 26° 266° (W) 12:37:15 145.980
PCSat 31 Aug 12:38:01 12:42:56 35° 248° (WSW) 12:47:46 145.827
BUGSAT 1 31 Aug 12:40:09 12:43:47 31° 264° (W) 12:47:27 437.445
DELFI C3 31 Aug 12:42:02 12:43:17 11° 297° (WNW) 12:44:21 145.870
QB50P2 31 Aug 12:46:48 12:49:41 17° 269° (W) 12:52:28 145.880/145.840
NANOSAT C BR1 31 Aug 12:48:16 12:51:10 17° 269° (W) 12:53:57 145.865
Oscar 19 31 Aug 12:51:39 12:55:54 27° 65° (ENE) 13:00:17 437.125/150
TISAT 1 31 Aug 12:57:43 13:00:31 17° 91° (E) 13:03:27 437.305
QB50P1 31 Aug 13:02:57 13:04:48 12° 272° (W) 13:06:27 145.935-145.965
DX 1 31 Aug 13:06:55 13:10:43 29° 292° (WNW) 13:14:28 434.975-435.025
GONETS M04 31 Aug 13:07:36 13:14:25 25° 62° (ENE) 13:21:32
ESTCUBE 1 31 Aug 13:10:54 13:15:17 52° 288° (WNW) 13:19:39 437.505/2401.250
HUMSAT D 31 Aug 13:12:35 13:15:01 15° 297° (WNW) 13:17:15 437.325/437.525
ISS 31 Aug 13:13:07 13:15:39 20° 2° (N) 13:18:09 145.825
JAS-2 31 Aug 13:17:24 13:21:22 16° 52° (NE) 13:25:42 435.910
UKube-1 31 Aug 13:20:40 13:24:10 23° 294° (WNW) 13:27:34 .
50 SAT 31 Aug 13:23:18 13:26:13 20° 293° (WNW) 13:29:02 437.505
SPROUT 31 Aug 13:26:10 13:30:29 62° 100° (E) 13:34:46 437.525
AISAT 31 Aug 13:26:42 13:30:33 28° 292° (WNW) 13:34:20 437.250
CUSAT 1 31 Aug 13:27:04 13:32:44 21° 275° (W) 13:38:19 437.405
Cosmos 2504 31 Aug 13:27:10 13:32:11 17° 284° (WNW) 13:36:36 435.465 / 435.565
CUBEBUG 1 31 Aug 13:28:44 13:32:53 40° 289° (WNW) 13:37:01 437.445
Gurwin Techsat 1B 31 Aug 13:28:51 13:32:35 20° 62° (ENE) 13:36:28 435.225
AO-7 31 Aug 13:33:25 13:36:16 12° 41° (NE) 13:39:32 29.400- 29.500
ITAMSAT 1 31 Aug 13:49:30 13:53:35 25° 64° (ENE) 13:57:48 435.822/435.867
DANDE 31 Aug 13:50:47 13:56:12 20° 274° (W) 14:01:41 436.750
VELOX 1 31 Aug 13:55:57 13:58:45 16° 297° (WNW) 14:01:24 145.980
SWISSCUBE 31 Aug 13:56:55 13:59:29 15° 89° (E) 14:02:16 437.505
Cosmos 2499 31 Aug 14:21:13 14:27:00 20° 57° (ENE) 14:32:56 435.465 / 435.565
Oscar 19 31 Aug 14:30:13 14:35:05 41° 262° (W) 14:40:00 437.125/150
TISAT 1 31 Aug 14:32:26 14:36:32 44° 288° (WNW) 14:40:36 437.305
ITUPSAT 1 31 Aug 14:34:00 14:38:11 31° 95° (E) 14:42:25 437.325
ISS 31 Aug 14:49:35 14:52:38 38° 22° (NNE) 14:55:42 145.825
JAS-2 31 Aug 14:57:31 15:05:03 63° 71° (ENE) 15:12:49 435.910
BEESAT 3 31 Aug 15:01:32 15:04:39 22° 114° (ESE) 15:07:52 437.485
HORYU 2 31 Aug 15:02:03 15:04:26 15° 62° (ENE) 15:06:59 437.375
GONETS M04 31 Aug 15:03:34 15:12:23 78° 265° (W) 15:21:11
SPROUT 31 Aug 15:03:40 15:06:06 14° 297° (WNW) 15:08:22 437.525
Gurwin Techsat 1B 31 Aug 15:06:55 15:12:09 60° 259° (W) 15:17:26 435.225
BEESAT 31 Aug 15:07:12 15:11:57 67° 102° (ESE) 15:16:40 436.000
BEESAT 2 31 Aug 15:12:55 15:16:01 22° 114° (ESE) 15:19:16 435.950
AO-7 31 Aug 15:19:22 15:27:12 48° 62° (ENE) 15:35:06 29.400- 29.500
ITAMSAT 1 31 Aug 15:27:55 15:32:52 45° 261° (W) 15:37:50 435.822/435.867
SWISSCUBE 31 Aug 15:33:08 15:37:52 63° 286° (WNW) 15:42:33 437.505
AIST 2 31 Aug 15:48:35 15:49:24 11° 109° (ESE) 15:50:27 435.215
STARS 31 Aug 16:08:09 16:12:01 29° 95° (E) 16:15:55 437.465
ITUPSAT 1 31 Aug 16:11:52 16:16:04 31° 293° (WNW) 16:20:11 437.325
RS-15 31 Aug 16:12:42 16:22:39 45° 111° (ESE) 16:33:08 29.354- 29.394
Cosmos 2499 31 Aug 16:13:02 16:21:50 84° 80° (E) 16:30:01 435.465 / 435.565
KKS-1 31 Aug 16:25:19 16:29:50 74° 103° (ESE) 16:34:19 437.445
ISS 31 Aug 16:26:01 16:29:02 35° 220° (SW) 16:32:02 145.825
MOZHAYETS 4 31 Aug 16:35:57 16:38:29 15° 89° (E) 16:41:13
HORYU 2 31 Aug 16:36:06 16:40:35 67° 258° (WSW) 16:45:05 437.375
BEESAT 3 31 Aug 16:38:32 16:42:23 39° 311° (NW) 16:46:15 437.485
JAS-2 31 Aug 16:43:51 16:50:33 31° 270° (W) 16:57:15 435.910
BEESAT 31 Aug 16:46:25 16:49:18 16° 298° (WNW) 16:52:02 436.000
BEESAT 2 31 Aug 16:49:58 16:53:52 40° 311° (NW) 16:57:46 435.950
GONETS M04 31 Aug 17:02:59 17:07:55 16° 284° (WNW) 17:12:19
Cubesat XI-IV 31 Aug 17:06:30 17:09:06 14° 59° (ENE) 17:11:57 437.490
AO-7 31 Aug 17:12:15 17:20:08 43° 262° (W) 17:27:55 29.400- 29.500
AIST 2 31 Aug 17:23:09 17:27:24 83° 304° (NW) 17:31:41 435.215
STARS 31 Aug 17:44:34 17:48:26 29° 292° (WNW) 17:52:13 437.465
CUTE-I 31 Aug 17:49:12 17:53:48 32° 66° (ENE) 17:58:30 437.470
KKS-1 31 Aug 18:03:42 18:05:56 13° 299° (WNW) 18:07:57 437.445
Cosmos 2499 31 Aug 18:07:48 18:13:57 21° 281° (W) 18:19:29 435.465 / 435.565
MOZHAYETS 4 31 Aug 18:11:40 18:16:10 57° 286° (WNW) 18:20:37
RS-15 31 Aug 18:23:58 18:34:49 60° 315° (NW) 18:46:09 29.354- 29.394
CUBESAT XI-V 31 Aug 18:28:05 18:31:28 20° 91° (E) 18:34:58 437.345
BRITE-PL 31 Aug 18:42:10 18:44:34 15° 61° (ENE) 18:47:14 437.365/2234.400
Cubesat XI-IV 31 Aug 18:43:13 18:48:32 89° 242° (WSW) 18:53:55 437.490
HO-68 31 Aug 18:53:38 18:57:33 16° 51° (NE) 19:01:46 435.675
AIST 2 31 Aug 19:04:15 19:06:39 14° 325° (NW) 19:08:58 435.215
GOMX 1 31 Aug 19:11:54 19:14:54 18° 62° (ENE) 19:18:12 467.674
AIST 1 31 Aug 19:13:41 19:17:33 31° 74° (ENE) 19:21:28
Cosmos 2491 31 Aug 19:17:40 19:24:24 25° 62° (ENE) 19:31:25 435.465 / 435.565
DOVE 4 31 Aug 19:27:06 19:29:53 16° 61° (ENE) 19:32:56 437.250
CUTE-I 31 Aug 19:28:56 19:33:50 36° 263° (W) 19:38:43 437.470
O/OREOS (USA 219) 31 Aug 19:31:15 19:35:38 52° 109° (ESE) 19:40:07 437.305
STRAND 1 31 Aug 19:47:48 19:52:23 33° 96° (E) 19:57:02 437.568
CUBESAT XI-V 31 Aug 20:04:44 20:09:09 44° 289° (WNW) 20:13:32 437.345
CINEMA 3 31 Aug 20:13:40 20:17:06 21° 64° (ENE) 20:20:45 145.822/145.860
BRITE-PL 31 Aug 20:18:11 20:22:32 65° 260° (W) 20:27:14 437.365/2234.400
CUTE 1.7 + AOD 2 31 Aug 20:19:24 20:23:13 32° 70° (ENE) 20:27:03 437.475
Cubesat XI-IV 31 Aug 20:27:33 20:29:32 12° 274° (W) 20:31:09 437.490
CANX-2 31 Aug 20:32:59 20:37:07 49° 73° (ENE) 20:41:18 2200.000
PRISM 31 Aug 20:36:54 20:41:02 75° 104° (ESE) 20:45:08 437.425
HO-68 31 Aug 20:37:05 20:44:12 72° 70° (ENE) 20:51:23 435.675
RS-15 31 Aug 20:40:57 20:50:20 28° 346° (NNW) 20:59:58 29.354- 29.394
GOMX 1 31 Aug 20:48:09 20:52:34 56° 261° (W) 20:57:21 467.674
AIST 1 31 Aug 20:51:37 20:55:04 23° 271° (W) 20:58:26
SEEDS 31 Aug 20:54:46 20:58:58 61° 74° (ENE) 21:03:11 437.485
Oscar 11 31 Aug 21:00:16 21:03:38 23° 67° (ENE) 21:07:05 145.826/435.025
DOVE 4 31 Aug 21:02:29 21:07:03 66° 259° (W) 21:11:59 437.250
O/OREOS (USA 219) 31 Aug 21:12:04 21:15:26 20° 308° (NW) 21:18:45 437.305
Cosmos 2491 31 Aug 21:13:38 21:22:23 78° 264° (W) 21:31:09 435.465 / 435.565
COMPASS 1 31 Aug 21:16:59 21:21:12 85° 75° (ENE) 21:25:26 437.405
YUBILEINY 31 Aug 21:22:23 21:30:47 54° 90° (E) 21:39:19 435.215
STRAND 1 31 Aug 21:27:03 21:31:34 32° 293° (WNW) 21:36:02 437.568
AAUSAT CUBESAT 2 31 Aug 21:27:22 21:31:34 88° 257° (WSW) 21:35:46 437.432
CUBEBUG 2 31 Aug 21:40:42 21:45:18 66° 74° (ENE) 21:50:03 437.445
ZACube-1 31 Aug 21:41:54 21:46:09 40° 71° (ENE) 21:50:29 437.345
FUNcube-1 31 Aug 21:47:18 21:51:36 44° 72° (ENE) 21:56:00 145.935
UWE-3 31 Aug 21:48:05 21:52:37 61° 74° (ENE) 21:57:16 435.000/436.395/437.385
CINEMA 3 31 Aug 21:49:21 21:53:55 50° 262° (W) 21:58:42 145.822/145.860
DELFI C3 31 Aug 21:52:47 21:56:43 50° 73° (ENE) 22:00:38 145.870
CUTE 1.7 + AOD 2 31 Aug 21:55:37 21:59:10 24° 267° (W) 22:02:38 437.475
